Home > Weather > Leirvik > Past weeks

Flag for Norway Weather for the Past 2 Weeks in Leirvik, Norway

Now
32 °F

Chilly.


Feels Like: 32 °F
Forecast: 26 / 32 °F
Wind: 1 mph from Northeast

Location: Slatteroy Fyr

Current Time: Feb 13, 2016 at 4:28:16 PM

Latest Report: Feb 13, 2016 at 4:00 PM


Visibility: N/A

Pressure: 29.44 "Hg

Humidity: 54%

Dew point: 17 °F

Location of LeirvikLocation

Historic Weather in Leirvik — Graph

°F

Leirvik Temperature Yesterday

Maximum temperature yesterday: 36 °F (at 2:00 PM)
Minimum temperature yesterday: 33 °F (at 9:00 AM)
Average temperature yesterday: 34 °F

High & Low Weather Summary for the Past Weeks

 TemperatureHumidityPressure
High47 °F (Feb 1, 2:00 PM)92% (Feb 5, 11:00 PM)30.00 "Hg (Feb 5, 11:00 PM)
Low27 °F (Feb 13, 8:00 AM)45% (Feb 12, 12:00 PM)28.53 "Hg (Feb 8, 9:00 AM)
Average40 °F80%29.23 "Hg
* Reported Jan 29 3:00 PM — Feb 13 3:00 PM, Leirvik, Weather by CustomWeather, © 2016

Note: Actual official high and low records may vary slightly from our data, if they occured in-between our weather recording intervals... More about our weather records

Advertising

Leirvik Weather History for the Previous 24 Hours

 ConditionsComfort  
Time TempWeatherWind HumidityBarometerVisibility
3:00 PM
Sat, Feb 13
33 °FChilly.1 mph55%29.44 "HgN/A
1:00 PM33 °FChilly.2 mph57%29.44 "HgN/A
12:00 PM31 °FChilly.2 mph64%29.44 "HgN/A
11:00 AM30 °FChilly.2 mph72%29.44 "HgN/A
10:00 AM28 °FChilly.1 mph76%29.47 "HgN/A
9:00 AM28 °FChilly.2 mph77%29.44 "HgN/A
8:00 AM27 °FChilly.2 mph76%29.47 "HgN/A
7:00 AM28 °FChilly.2 mph76%29.47 "HgN/A
6:00 AM28 °FChilly.2 mph74%29.47 "HgN/A
5:00 AM28 °FChilly.2 mph74%29.47 "HgN/A
1:00 AM32 °FChilly.1 mph64%29.53 "HgN/A
11:00 PM
Fri, Feb 12
33 °FChilly.5 mph62%29.55 "HgN/A
10:00 PM33 °FChilly.1 mph58%29.57 "HgN/A
9:00 PM34 °FChilly.2 mph56%29.58 "HgN/A
8:00 PM34 °FChilly.5 mph60%29.60 "HgN/A
7:00 PM35 °FChilly.5 mph58%29.61 "HgN/A
6:00 PM35 °FChilly.3 mph57%29.62 "HgN/A
5:00 PM35 °FChilly.6 mph57%29.63 "HgN/A
4:00 PM35 °FChilly.3 mph48%29.65 "HgN/A
Weather by CustomWeather, © 2016

See weather overviewHow to use our weather pages